Skip Page Navigation
NASA JPL Caltech
NASA Logo - Jet Propulsion Laboratory + View the NASA Portal
+ Center for Near-Earth Object Studies
JPL Home Earth Solar System Stars & Galaxies Technology
JPL Solar System Dynamics
BODIES ORBITS EPHEMERIDES TOOLS PHYSICAL DATA DISCOVERY FAQ SITE MAP
JPL Small-Body Database Browser
Search: [ help ]  
382465 (2000 SX199)
Classification: Main-belt Asteroid          SPK-ID: 2382465
Ephemeris | Orbit Diagram | Orbital Elements | Mission Design | Physical Parameters | Discovery Circumstances ]

[ show orbit diagram ]
Orbital Elements at Epoch 2459000.5 (2020-May-31.0) TDB
Reference: JPL 12 (heliocentric ecliptic J2000)
 Element Value Uncertainty (1-sigma)   Units 
e .1637090752396242 8.2205e-08  
a 2.143872950309226 1.1871e-08 au
q 1.792901492182858 1.6942e-07 au
i 1.86799507737963 9.6715e-06 deg
node 222.9354289865884 0.00014873 deg
peri 128.7679740379814 0.0001525 deg
M 109.3708947288896 3.62e-05 deg
tp 2458652.165686201745
(2019-Jun-17.66568620)
0.00011338 TDB
period 1146.56054774185
3.14
9.5234e-06
2.607e-08
d
yr
n .3139825460670348 2.608e-09 deg/d
Q 2.494844408435595 1.3815e-08 au
  Orbit Determination Parameters
   # obs. used (total)      165  
   data-arc span      7065 days (19.34 yr)  
   first obs. used      2000-09-24  
   last obs. used      2020-01-28  
   planetary ephem.      DE431  
   SB-pert. ephem.      SB431-N16  
   condition code      0  
   norm. resid. RMS      .52977  
   source      ORB  
   producer      Otto Matic  
   solution date      2020-Feb-26 03:35:27  

Additional Information
 Earth MOID = .787995 au 
 Jupiter MOID = 2.92908 au 
 T_jup = 3.693 
[ show covariance matrix ]

Ephemeris | Orbit Diagram | Orbital Elements | Mission Design | Physical Parameters | Discovery Circumstances ]

Physical Parameter Table
Parameter Symbol Value Units Sigma Reference Notes
absolute magnitude H 17.7   n/a MPO440655  

382465 (2000 SX199)          Discovered 2000-Sep-24 by LINEAR at Socorro
Reference: Last Updated: 2014-01-21

Alternate Designations
 2000 SX199 = 2003 QG3 
Ephemeris | Orbit Diagram | Orbital Elements | Mission Design | Physical Parameters | Discovery Circumstances ]
ABOUT SSD CREDITS/AWARDS PRIVACY/COPYRIGHT GLOSSARY LINKS
FirstGov 2020-Jul-06 19:01 UT
(server date/time)  
NASA Home Page
Site Manager:   Ryan S. Park
Webmaster  Alan B. Chamberlin